Terminal Aerodrome Forecast
Issued by NWS

Home | Current Version | Previous Version | Text Only | Print | Product List | Glossary On
Versions: 1 2 3 4 5 6 7 8 9 10 11 12 13 14 15 16
000
FTUS45 KABQ 301700
TAFTCC
TAF
KTCC 301722Z 3018/0118 26015G25KT P6SM SKC
     FM010100 26010KT P6SM SKC
     FM011000 29010KT P6SM SKC=

USA.gov is the U.S. government's official web portal to all federal, state and local government web resources and services.